Terug naar catalogus

STARLINK-6272

ActiefCommunicatieVLEO
NORAD 56420·PAYLOAD·🇺🇸 United States

Gelanceerd May 4, 2023 vanaf Cape Canaveral Space Force Station

Loading…

Volgende Passages (komende 24 uur)

TLE

VersSource: CelesTrak SupGP

Epoch: Sep 15, 2026, 01:52 UTC

1 56420C 23061AY  26258.07826389 -.00013876  00000+0 -50263-3 0  2588
2 56420  43.0027 189.9366 0001835 276.7244 125.4028 15.27581354    10

Volg STARLINK-6272 in realtime met AllMySat

Download on the App Store